This demonstration page uses our WeatherBlox Daily Observations layout. Learn more.

Left ArrowRight Arrow

39.01783, -85.05884

Hourly Observations for November 9, 2018

Temp ( °F °C ) Dew Point ( °F °C ) Humidity (%) Winds ( mph kmh ) Pressure ( in mb ) Visibility ( mi km ) Precip ( " mm )
12:52 am 00:52 Cloudy with Light Rain 41 5 34 1.1 76 76 NNE 10 17 30.14 1021 7 11 0.01 0.25
1:52 am 01:52 Cloudy with Light Rain 40 4.4 35 1.7 83 83 NNE 13 20 30.09 1019 7 11 0.03 0.76
2:52 am 02:52 Cloudy with Rain 39 3.9 38 3.3 96 96 NNE 13 20 30.09 1019 3 5 0.08 2.03
3:18 am 03:18 Cloudy with Light Rain 39 3.9 37 2.8 93 93 N 10 17 30.12 1020 4 6 0.01 0.25
3:52 am 03:52 Cloudy with Light Rain 39 3.9 38 3.3 96 96 NNE 12 19 30.07 1018 3 5 0.06 1.52
4:06 am 04:06 Cloudy with Light Rain 38 3.3 37 2.8 97 97 NNE 12 19 30.09 1019 4 6 0.00 0.03
4:52 am 04:52 Cloudy with Drizzle 38 3.3 38 3.3 100 100 NNE 12 19 30.04 1017 5 8 0.01 0.25
5:52 am 05:52 Cloudy with Mist and Fog 38 3.3 37 2.8 97 97 N 9 15 30.03 1017 6 10 0.00 0.03
6:52 am 06:52 Cloudy with Light Rain 38 3.3 37 2.8 97 97 NNE 9 15 30.01 1016 4 6 0.02 0.51
7:52 am 07:52 Cloudy with Light Rain 38 3.3 37 2.8 97 97 N 6 9 30.02 1017 3 4 0.02 0.51
8:39 am 08:39 Cloudy with Mist and Fog 38 3.3 37 2.8 97 97 NNW 7 11 30.03 1017 3 5 0.01 0.25
8:52 am 08:52 Cloudy with Mist and Fog 38 3.3 37 2.8 97 97 NNW 6 9 30.02 1017 3 5 0.01 0.25
9:52 am 09:52 Cloudy with Mist and Fog 38 3.3 37 2.8 97 97 W 5 7 30.03 1017 4 6 0.00 0.00
10:52 am 10:52 Cloudy with Mist and Fog 38 3.3 38 3.3 100 100 W 8 13 30.02 1017 3 5 0.00 0.00
11:07 am 11:07 Cloudy with Mist and Fog 39 3.9 38 3.3 96 96 W 7 11 30.06 1018 4 6 0.00 0.00
11:52 am 11:52 Cloudy with Mist and Fog 41 5 39 3.9 93 93 W 7 11 30.03 1017 5 8 0.00 0.00
12:41 pm 12:41 Cloudy 43 6.1 39 3.9 86 86 W 13 20 30.06 1018 7 11 0.00 0.00
12:52 pm 12:52 Cloudy 43 6.1 39 3.9 86 86 W 13 20 30.03 1017 8 13 0.00 0.00
1:25 pm 13:25 Cloudy 44 6.7 38 3.3 79 79 W 15 24 30.06 1018 10 16 0.00 0.00
1:52 pm 13:52 Cloudy 44 6.7 37 2.8 76 76 W 17 28 30.02 1017 10 16 0.00 0.00
2:52 pm 14:52 Cloudy 44 6.7 36 2.2 73 73 W 17 28 30.03 1017 10 16 0.00 0.00
3:52 pm 15:52 Cloudy 43 6.1 36 2.2 76 76 WSW 6 9 30.04 1017 10 16 0.00 0.00
4:52 pm 16:52 Cloudy 41 5 35 1.7 79 79 WNW 17 28 30.07 1018 10 16 0.00 0.03
5:52 pm 17:52 Cloudy 39 3.9 34 1.1 82 82 W 18 30 30.09 1019 10 16 0.00 0.03
6:52 pm 18:52 Cloudy 37 2.8 30 -1.1 76 76 WNW 17 28 30.13 1020 10 16 0.00 0.00
7:31 pm 19:31 Cloudy 36 2.2 29 -1.7 76 76 W 15 24 30.15 1021 10 16 0.00 0.00
7:52 pm 19:52 Cloudy 36 2.2 29 -1.7 76 76 W 14 22 30.15 1021 10 16 0.00 0.00
8:24 pm 20:24 Cloudy 36 2.2 28 -2.2 73 73 WNW 15 24 30.18 1022 10 16 0.00 0.00
8:52 pm 20:52 Windy with Snow Likely 35 1.7 26 -3.3 70 70 WNW 23 37 30.17 1022 10 16 0.00 0.03
9:13 pm 21:13 Cloudy 34 1.1 25 -3.9 70 70 WNW 15 24 30.21 1023 10 16 0.00 0.03
9:52 pm 21:52 Cloudy with Light Snow 34 1.1 24 -4.4 67 67 W 12 19 30.19 1022 9 14 0.00 0.03
10:52 pm 22:52 Mostly Cloudy 33 0.6 24 -4.4 70 70 W 16 26 30.19 1022 10 16 0.00 0.03
11:52 pm 23:52 Partly Cloudy 32 0 22 -5.6 66 66 W 10 17 30.19 1022 10 16 0.00 0.00

Powered by AerisWeather